Weather Roundup
Issued by NWS

Home | Current Version | Previous Version | Graphics & Text | Print | Product List | Glossary Off
Versions: 1 2 3 4 5 6 7 8 9 10 11 12 13 14 15 16 17 18 19 20 21 22 23 24 25 26 27 28 29 30 31 32 33 34 35 36 37 38 39 40 41 42 43 44 45 46 47 48 49 50

419
NZUS93 KARX 190159
HRRWXR

CURRENT HOURLY OBSERVATIONS ACROSS
MUCH OF THE UPPER MISSISSIPPI VALLEY
NATIONAL WEATHER SERVICE LA CROSSE WI
800 PM CST WED JAN 18 2017


...SOUTHEAST MINNESOTA...


CITY           SKY/WX    TMP DP  RH WIND       PRES   REMARKS
ROCHESTER      CLEAR     32  32 100 S16       29.89F WCI  21
ROCHESTER/MAYO FAIR      34  34 100 S14G20    29.90F WCI  25
WINONA         CLOUDY    34  32  93 CALM      29.94F
AUSTIN         CLOUDY    34  30  86 S8        29.90F FOG     WCI  27
ALBERT LEA     CLEAR     36  36 100 S8        29.88F WCI  29
DODGE CENTER   CLEAR     32  30  93 S16       29.87F WCI  21
PRESTON        FOG       32  32  99 S16       29.92F VSB 1   WCI  21
OWATONNA         N/A     36  32  87 S14       29.87S WCI  27
FARIBAULT      CLEAR     34  32  93 S8        29.87S WCI  27
$$

...ELSEWHERE IN MINNESOTA...


CITY           SKY/WX    TMP DP  RH WIND       PRES   REMARKS
MINNEAPOLIS    CLOUDY    33  29  85 SE6       29.85F WCI  28
INTNL FALLS    CLOUDY    25  20  81 CALM      29.72F
DULUTH         CLOUDY    35  26  69 SW9       29.79S WCI  28
RED WING       CLOUDY    36  30  80 CALM      29.89S
REDWOOD FALLS  CLOUDY    34  31  88 SE9       29.79F WCI  27
MANKATO        CLEAR     36  34  92 S10       29.84F WCI  28
WORTHINGTON    CLEAR     39  35  86 S17       29.81S WCI  30
FAIRMONT       CLEAR     35  34  96 S9        29.85F WCI  28
$$

...SOUTHWEST WISCONSIN...


CITY           SKY/WX    TMP DP  RH WIND       PRES   REMARKS
LA CROSSE      CLOUDY    36  31  82 S9        29.96F WCI  29
PRAIRIE DU CHI CLOUDY    34  32  92 S5        30.01F FOG     WCI  30
BOSCOBEL       CLOUDY    35  31  85 SW6       30.01F WCI  30
LONE ROCK      CLOUDY    33  30  88 SW8       30.02S FOG     WCI  26
PLATTEVILLE    CLOUDY    33  33 100 S9        30.02F WCI  25
FORT MC COY    CLOUDY    32  30  93 SW6       29.96S WCI  26
MAUSTON-NEW LI CLOUDY    34  31  88 CALM      29.95S
VIROQUA        CLOUDY    32  32 100 SW10G17   29.96S WCI  23
WIS DELLS      CLOUDY    32  30  93 CALM      29.97S FOG
$$

...ELSEWHERE IN WISCONSIN...


CITY           SKY/WX    TMP DP  RH WIND       PRES   REMARKS
MILWAUKEE      CLOUDY    34  30  85 SW12      30.01F FOG     WCI  25
MADISON        CLOUDY    33  30  88 S10       30.01S FOG     WCI  25
GREEN BAY      CLEAR     35  32  88 SW9       29.92S WCI  28
EAU CLAIRE     NOT AVBL
BLACK RVR FLS  FAIR      32  32 100 SW5       29.93S FOG     WCI  27
MEDFORD        CLOUDY    31  28  86 SW7       29.88S WCI  25
WAUSAU         CLOUDY    33  29  85 S5        29.89R WCI  29
WIS RAPIDS     CLOUDY    32  30  92 SW8       29.94S WCI  25
MARSHFIELD     CLOUDY    31  27  85 SW7       29.89S WCI  24
RICE LAKE      CLOUDY    32  29  90 SE3       29.89S FOG
$$

...NORTHEAST IOWA...


CITY           SKY/WX    TMP DP  RH WIND       PRES   REMARKS
WATERLOO       CLEAR     33  32  96 S9        29.97F FOG     WCI  25
DUBUQUE        MOCLDY    31  30  96 S8        30.01F FOG     WCI  23
DECORAH        FOG       34  34 100 S7        29.95F VSB 1/2 WCI  28
MASON CITY     CLEAR     32  31  96 S8        29.92F WCI  25
CHARLES CITY   CLOUDY    32  32 100 SE8       29.95S FOG     WCI  25
OELWEIN        CLOUDY    32  32 100 SE12      29.97F FOG     WCI  23
$$

...ELSEWHERE IN IOWA...


CITY           SKY/WX    TMP DP  RH WIND       PRES   REMARKS
DES MOINES     CLEAR     35  33  92 S13       29.97F WCI  26
IOWA CITY      CLEAR     33  31  92 SE5       30.04F FOG     WCI  29
FORT DODGE     CLEAR     37  34  87 S10       29.92S WCI  30
MARSHALLTOWN   CLEAR     36  34  92 SE10      29.97S WCI  28
CEDAR RAPIDS   CLEAR     34  32  92 S7        30.00F WCI  28
$$

...NORTHERN ILLINOIS...


CITY           SKY/WX    TMP DP  RH WIND       PRES   REMARKS
CHICAGO-OHARE  CLOUDY    36  32  85 SW10      30.06F WCI  28
CHICAGO-MIDWAY CLOUDY    35  31  85 SW14      30.08F WCI  26
MOLINE         CLEAR     28  26  92 E5        30.04F FOG     WCI  23
ROCKFORD       CLOUDY    35  31  85 S6        30.07F WCI  30
PEORIA         CLOUDY    32  32 100 E3        30.07F FOG
$$

NOTE: "FAIR" INDICATES FEW OR NO CLOUDS BELOW 12,000 FEET WITH NO
SIGNIFICANT WEATHER AND/OR OBSTRUCTIONS TO VISIBILITY. WIND
SPEEDS ARE IN MILES-PER-HOUR.




USA.gov is the U.S. government's official web portal to all federal, state and local government web resources and services.